TimeEST,TemperatureF,Dew PointF,Humidity,Sea Level PressureIn,VisibilityMPH,Wind Direction,Wind SpeedMPH,Gust SpeedMPH,PrecipitationIn,Events,Conditions,WindDirDegrees,DateUTC
12:15 AM,46.4,37.4,71,30.30,10.0,Calm,Calm,-,N/A,,Clear,0,2013-01-23 05:15:00
12:35 AM,46.4,37.4,71,30.29,10.0,Calm,Calm,-,N/A,,Clear,0,2013-01-23 05:35:00
12:55 AM,44.6,37.4,76,30.29,10.0,Calm,Calm,-,N/A,,Clear,0,2013-01-23 05:55:00
1:15 AM,46.4,37.4,71,30.29,10.0,Calm,Calm,-,N/A,,Clear,0,2013-01-23 06:15:00
1:35 AM,44.6,37.4,76,30.29,10.0,Calm,Calm,-,N/A,,Clear,0,2013-01-23 06:35:00
1:55 AM,46.4,37.4,71,30.29,10.0,North,3.5,-,N/A,,Clear,10,2013-01-23 06:55:00
2:15 AM,46.4,37.4,71,30.29,10.0,Calm,Calm,-,N/A,,Clear,0,2013-01-23 07:15:00
2:35 AM,46.4,37.4,71,30.29,10.0,Calm,Calm,-,N/A,,Clear,0,2013-01-23 07:35:00
2:55 AM,46.4,37.4,71,30.29,10.0,North,3.5,-,N/A,,Clear,350,2013-01-23 07:55:00
3:15 AM,44.6,37.4,76,30.30,10.0,North,3.5,-,N/A,,Clear,10,2013-01-23 08:15:00
3:35 AM,44.6,37.4,76,30.30,10.0,Calm,Calm,-,N/A,,Clear,0,2013-01-23 08:35:00
3:55 AM,44.6,37.4,76,30.30,10.0,North,5.8,-,N/A,,Clear,350,2013-01-23 08:55:00
4:15 AM,44.6,35.6,71,30.30,10.0,North,6.9,-,N/A,,Clear,10,2013-01-23 09:15:00
4:35 AM,44.6,35.6,71,30.31,10.0,North,8.1,-,N/A,,Clear,360,2013-01-23 09:35:00
4:55 AM,44.6,35.6,71,30.31,10.0,North,6.9,-,N/A,,Clear,360,2013-01-23 09:55:00
5:15 AM,44.6,33.8,66,30.31,10.0,North,6.9,-,N/A,,Clear,360,2013-01-23 10:15:00
5:35 AM,44.6,33.8,66,30.31,10.0,NNE,5.8,-,N/A,,Clear,20,2013-01-23 10:35:00
5:55 AM,46.4,33.8,62,30.32,10.0,NNE,5.8,-,N/A,,Clear,30,2013-01-23 10:55:00
6:50 AM,46.4,35.6,66,30.34,10.0,NNE,8.1,-,N/A,,Partly Cloudy,30,2013-01-23 11:50:00
7:53 AM,44.6,35.6,71,30.36,12.0,NNE,5.8,-,N/A,,Partly Cloudy,30,2013-01-23 12:53:00
8:51 AM,51.8,33.8,50,30.37,12.0,NE,10.4,-,N/A,,Partly Cloudy,40,2013-01-23 13:51:00
9:51 AM,57.2,28.4,33,30.38,12.0,NE,9.2,-,N/A,,Clear,40,2013-01-23 14:51:00
10:52 AM,60.8,28.4,29,30.38,15.0,NNE,10.4,-,N/A,,Clear,20,2013-01-23 15:52:00
11:53 AM,64.4,26.6,24,30.36,15.0,NE,6.9,-,N/A,,Clear,50,2013-01-23 16:53:00
12:50 PM,66.2,28.4,24,30.33,15.0,NNE,6.9,-,N/A,,Clear,20,2013-01-23 17:50:00
1:50 PM,69.8,28.4,21,30.30,15.0,North,6.9,-,N/A,,Clear,360,2013-01-23 18:50:00
2:50 PM,69.8,28.4,21,30.29,15.0,NNE,9.2,-,N/A,,Clear,30,2013-01-23 19:50:00
3:50 PM,69.8,28.4,21,30.29,15.0,NE,3.5,-,N/A,,Clear,50,2013-01-23 20:50:00
4:50 PM,68.0,28.4,23,30.29,15.0,NNE,4.6,-,N/A,,Partly Cloudy,20,2013-01-23 21:50:00
5:50 PM,64.4,30.2,28,30.30,15.0,NNE,4.6,-,N/A,,Partly Cloudy,30,2013-01-23 22:50:00
6:50 PM,57.2,32.0,38,30.31,15.0,NNE,6.9,-,N/A,,Clear,20,2013-01-23 23:50:00
7:50 PM,55.4,33.8,44,30.32,10.0,North,4.6,-,N/A,,Clear,10,2013-01-24 00:50:00
8:50 PM,51.8,35.6,54,30.33,10.0,Calm,Calm,-,N/A,,Clear,0,2013-01-24 01:50:00
9:50 PM,48.2,35.6,62,30.33,10.0,East,4.6,-,N/A,,Clear,90,2013-01-24 02:50:00
9:55 PM,46.4,35.6,66,30.33,10.0,ENE,3.5,-,N/A,,Clear,70,2013-01-24 02:55:00
10:15 PM,50.0,35.6,58,30.33,10.0,Calm,Calm,-,N/A,,Clear,0,2013-01-24 03:15:00
10:35 PM,50.0,35.6,58,30.33,10.0,Calm,Calm,-,N/A,,Clear,0,2013-01-24 03:35:00
10:55 PM,46.4,35.6,66,30.34,10.0,Calm,Calm,-,N/A,,Clear,0,2013-01-24 03:55:00
11:15 PM,44.6,35.6,71,30.33,10.0,Calm,Calm,-,N/A,,Clear,0,2013-01-24 04:15:00
11:35 PM,44.6,37.4,76,30.33,10.0,Calm,Calm,-,N/A,,Clear,0,2013-01-24 04:35:00
11:55 PM,44.6,35.6,71,30.33,10.0,Calm,Calm,-,N/A,,Clear,0,2013-01-24 04:55:00